Home   Weather   St. Albert   Past weeks

Flag for Canada Past Weather in St. Albert, Alberta, Canada — Yesterday and Last 2 Weeks

Now
37 °F

Chilly.


Feels Like: 32 °F
Forecast: 19 / 32 °F
Wind: 6 mph from West

Location: Edmonton Municipal

Current Time: Jan 19, 2017 at 9:09:35 pm

Latest Report: Jan 19, 2017 at 8:00 pm


Visibility: N/A

Pressure: 29.27 "Hg (26.99 "Hg at 653m altitude)

Humidity: 65%

Dew Point: 26 °F

Location of St. AlbertLocation

Past Weather in St. Albert — Graph

°F

St. Albert Temperature Yesterday

Maximum temperature yesterday: 46 °F (at 12:00 pm)
Minimum temperature yesterday: 31 °F (at 2:00 am)
Average temperature yesterday: 38 °F

High & Low Weather Summary for the Past Weeks

 TemperatureHumidityPressure
High46 °F (Jan 18, 12:00 pm)100% (Jan 5, 8:00 am)30.51 "Hg (Jan 5, 8:00 am)
Low-14 °F (Jan 10, 11:00 pm)43% (Jan 15, 2:00 pm)29.19 "Hg (Jan 19, 3:00 pm)
Average15 °F76%29.94 "Hg
* Reported Jan 4 8:00 pm — Jan 19 8:00 pm, St. Albert, Weather by CustomWeather, © 2017

Note: Actual official high and low records may vary slightly from our data, if they occured in-between our weather recording intervals... More about our weather records

Advertising

St. Albert Weather History for the Previous 24 Hours

Scroll right to see more
 ConditionsComfort  
Time TempWeatherWind HumidityBarometerVisibility
8:00 pm
Thu, Jan 19
37 °FChilly.6 mph65%29.27 "HgN/A
7:00 pm36 °FChilly.5 mph75%29.26 "HgN/A
6:00 pm38 °FChilly.3 mph74%29.24 "HgN/A
5:00 pm38 °FChilly.5 mph76%29.23 "HgN/A
4:00 pm39 °FChilly.6 mph71%29.21 "HgN/A
3:00 pm42 °FQuite cool.5 mph64%29.19 "HgN/A
2:00 pm41 °FQuite cool.3 mph63%29.21 "HgN/A
1:00 pm40 °FQuite cool.3 mph64%29.21 "HgN/A
12:00 pm39 °FChilly.2 mph68%29.22 "HgN/A
11:00 am36 °FChilly.3 mph76%29.25 "HgN/A
10:00 am31 °FChilly.1 mph83%29.27 "HgN/A
9:00 am32 °FChilly.2 mph83%29.26 "HgN/A
8:00 am31 °FChilly.1 mph78%29.26 "HgN/A
7:00 am32 °FChilly.5 mph79%29.27 "HgN/A
6:00 am32 °FChilly.3 mph76%29.28 "HgN/A
5:00 am31 °FChilly.3 mph76%29.30 "HgN/A
4:00 am30 °FChilly.3 mph86%29.31 "HgN/A
3:00 am34 °FChilly.1 mph75%29.28 "HgN/A
2:00 am30 °FChilly.5 mph84%29.26 "HgN/A
1:00 am35 °FChilly.1 mph73%29.23 "HgN/A
12:00 am38 °FChilly.3 mph69%29.21 "HgN/A
11:00 pm
Wed, Jan 18
38 °FChilly.6 mph70%29.20 "HgN/A
10:00 pm38 °FChilly.2 mph80%29.20 "HgN/A
9:00 pm40 °FQuite cool.7 mph70%29.20 "HgN/A
Weather by CustomWeather, © 2017

See weather overviewHow to use our weather pages